Other Public Products
Issued by NWS Charleston, SC

Home | Current Version | Previous Version | Text Only | Print | Product List | Glossary On
Versions: 1 2 3 4 5 6 7 8 9 10 11 12 13 14 15 16 17 18 19 20 21 22 23 24 25 26 27 28 29 30 31 32 33 34 35 36 37 38 39 40 41 42 43 44 45 46 47 48 49 50
976
FPUS82 KCHS 191912
OPUCHS

TEST...KCHS/KSAV Gateway Observations...TEST
National Weather Service Charleston SC
300 PM EDT THU OCT 19 2017

NOTE: "fair" indicates few or no clouds below 12,000 feet with no
significant weather and/or obstructions to visibility.

SCZ050-WAZ558-NCZ071-TXZ119-213-PAZ071-DCZ001-FLZ074-172-MI076-
NYZ176-178-MAZ016-IL014-TNZ027-NJZ106-GAZ044-MD014-192000-

...Gateway Observations for Charleston International...

CITY           SKY/WX    TMP DP  RH WIND       PRES   REMARKS
Chas Airport   FAIR      80  58  46 NE8       30.19F
Seattle        LGT RAIN  53  51  93 S9        29.55F FOG
Charlotte      FAIR      72  41  32 VRB3      30.26F
Dallas DFW     FAIR      81  53  37 SE8       30.11F
Dallas Love    FAIR      79  53  40 S9        30.13F
Philladelphia  FAIR      70  42  36 SW16      30.17F
Wash National  FAIR      71  49  45 S10       30.19F
Baltimore      FAIR      72  45  37 W6        30.17F
Miami          PTSUNNY   88  74  63 E10       29.97F HX  96
Detroit        PTSUNNY   71  44  37 W13       30.10F
Newark         FAIR      73  38  27 SW12      30.13F
Laguardia      FAIR      72  39  30 SW14      30.12F
J F K          FAIR      68  52  56 S12       30.15F
Boston Logan   FAIR      74  45  35 SW17      30.05F
Ft. Lauderdale FAIR      86  76  71 E13       29.97F HX  96
Chicago O`Hare PTSUNNY   69  23  17 CALM      30.17F
Chicago Midway PTSUNNY   68  23  18 S3        30.17F
Houston Bush   PTSUNNY   83  64  52 SE7       30.10F
Houston Hobby  PTSUNNY   82  64  54 E14G20    30.10F
Nashville      FAIR      73  44  35 CALM      30.26F
Atlanta        FAIR      74  41  30 CALM      30.25F

$$

GAZ044-118-TXZ119-213-NCZ071-DCZ001-MDZ014-506-PAZ021-071-NJZ106-
NYZ176-178-MAZ106-OHZ011-021-055-MIZ076-KYZ091-ILZ014-INZ047-
MNZ060-ONZ431-192000-

...Gateway Observations for Savannah International...

CITY           SKY/WX    TMP DP  RH WIND       PRES   REMARKS
Savannah Arpt  FAIR      81  59  47 E8        30.19F
Atlanta        FAIR      74  41  30 CALM      30.25F
Charlotte      FAIR      72  41  32 VRB3      30.26F
Dallas DFW     FAIR      81  53  37 SE8       30.11F
Houston Bush   PTSUNNY   83  64  52 SE7       30.10F
Wash National  FAIR      71  49  45 S10       30.19F
Wash Dulles    FAIR      72  45  37 MISG      30.18F
Baltimore      FAIR      72  45  37 W6        30.17F
Philadelphia   FAIR      70  42  36 SW16      30.17F
Newark         FAIR      73  38  27 SW12      30.13F
Laguardia      FAIR      72  39  30 SW14      30.12F
J F K          FAIR      68  52  56 S12       30.15F
Boston         FAIR      74  45  35 SW17      30.05F
Pittsburg      PTSUNNY   69  46  43 SW13G21   30.17F
Akron          FAIR      71  48  43 SW14G21   30.16S
Cleveland      FAIR      73  50  44 W13       30.14F
Cincinnati     FAIR      72  52  49 SW9       30.20F
Columbus       FAIR      72  50  45 SW13G20   30.18F
Detroit        PTSUNNY   71  44  37 W13       30.10F
Chicago O`Hare PTSUNNY   69  23  17 CALM      30.17F
Minneapolis    FAIR      71  34  25 S9G20     30.02F
Indianapolis   FAIR      73  51  46 SW10      30.18F
Toronto Canada MOSUNNY   70  45  40 W20G31    29.97F

$$




USA.gov is the U.S. government's official web portal to all federal, state and local government web resources and services.